Change the Weather History Date:

Thursday, November 8, 2012

  Actual Average Record
Temperature  
Mean Temperature 49 °F 40 °F  
Max Temperature 61 °F 49 °F 77 °F (2006)
Min Temperature 36 °F 31 °F 15 °F (1948)
Degree Days  
Heating Degree Days 16 25  
Month to date heating degree days 116 188  
Since 1 July heating degree days 630 887  
Cooling Degree Days 0 0  
Month to date cooling degree days 0 0  
Year to date cooling degree days 750 510  
Moisture  
Dew Point 34 °F    
Average Humidity 56    
Maximum Humidity 85    
Minimum Humidity 26    
Precipitation  
Precipitation 0.02 in 0.04 in 0.45 in (1973)
Month to date precipitation 0.03 0.25  
Year to date precipitation 7.61 8.35  
Sea Level Pressure  
Sea Level Pressure 29.65 in    
Wind  
Wind Speed 8 mph (SSE)    
Max Wind Speed 26 mph    
Max Gust Speed 38 mph    
Visibility 10 miles    
Events Rain    
T = Trace of Precipitation, MM = Missing Value Source: NWS Daily Summary

Daily Weather History Graph

Daily Weather History Graph

Search for Another Location

Airport or City:

Trip Planner

Search our weather history database for the weather conditions in past years. The results will help you decide how hot, cold, wet, or windy it might be!

Date:

Astronomy

Nov. 08, 2012 Rise Set
Actual Time 7:21 AM MST 5:21 PM MST
Civil Twilight 6:51 AM MST 5:51 PM MST
Nautical Twilight 6:17 AM MST 6:24 PM MST
Astronomical Twilight 5:44 AM MST 6:58 PM MST
Moon 1:13 AM MST (11/8) 2:11 PM MST (11/8)
Length of Visible Light 10h 59m
Length of Day
9h 59m
Waning Crescent, 32% of the Moon is Illuminated
Nov 8
Waning Crescent
Nov 13
New
Nov 20
First Quarter
Nov 28
Full
Dec 6
Last Quarter

Hourly Weather History & Observations

Time (MST) Temp. Windchill Dew Point Humidity Pressure Visibility Wind Dir Wind Speed Gust Speed Precip Events Conditions
12:53 AM 41.0 °F 39.0 °F 36.0 °F 82% 29.82 in 10.0 mi South 3.5 mph - N/A   Clear
1:53 AM 41.0 °F 38.0 °F 36.0 °F 82% 29.78 in 10.0 mi SW 4.6 mph - N/A   Clear
2:53 AM 41.0 °F - 35.1 °F 79% 29.76 in 10.0 mi Calm Calm - N/A   Partly Cloudy
3:53 AM 39.0 °F - 34.0 °F 82% 29.74 in 10.0 mi Calm Calm - N/A   Partly Cloudy
5:53 AM 39.0 °F 34.0 °F 35.1 °F 86% 29.71 in 10.0 mi ENE 6.9 mph - N/A   Overcast
6:53 AM 39.9 °F 33.9 °F 35.1 °F 83% 29.69 in 10.0 mi ENE 9.2 mph - N/A   Mostly Cloudy
7:53 AM 39.9 °F 32.9 °F 35.1 °F 83% 29.68 in 10.0 mi ENE 11.5 mph - N/A   Mostly Cloudy
8:53 AM 44.1 °F 38.6 °F 37.0 °F 76% 29.68 in 10.0 mi ENE 10.4 mph - N/A   Mostly Cloudy
9:53 AM 44.1 °F - 37.9 °F 79% 29.69 in 10.0 mi Calm Calm - N/A   Mostly Cloudy
10:53 AM 46.9 °F - 37.9 °F 71% 29.64 in 10.0 mi NE 12.7 mph - N/A   Overcast
11:53 AM 52.0 °F - 37.0 °F 57% 29.62 in 10.0 mi NE 8.1 mph - N/A   Overcast
12:53 PM 53.1 °F - 35.1 °F 50% 29.60 in 10.0 mi East 5.8 mph - N/A   Overcast
1:53 PM 55.0 °F - 33.1 °F 43% 29.56 in 10.0 mi ESE 3.5 mph - N/A   Overcast
2:53 PM 55.9 °F - 34.0 °F 44% 29.53 in 10.0 mi Calm Calm - N/A   Overcast
3:51 PM 59.0 °F - 24.8 °F 27% 29.55 in 10.0 mi SW 23.0 mph 31.1 mph N/A   Mostly Cloudy
3:53 PM 59.0 °F - 25.0 °F 27% 29.52 in 8.0 mi SW 26.5 mph 38.0 mph N/A   Mostly Cloudy
4:09 PM 53.6 °F - 32.0 °F 44% 29.59 in 9.0 mi West 19.6 mph 34.5 mph N/A   Mostly Cloudy
4:53 PM 48.0 °F - 33.1 °F 56% 29.58 in 10.0 mi West 16.1 mph 23.0 mph N/A   Mostly Cloudy
5:53 PM 46.9 °F - 34.0 °F 61% 29.61 in 10.0 mi Calm Calm - N/A   Overcast
6:53 PM 46.9 °F - 34.0 °F 61% 29.60 in 10.0 mi SSE 6.9 mph - N/A   Overcast
7:53 PM 41.0 °F 33.9 °F 35.1 °F 79% 29.64 in 10.0 mi WSW 12.7 mph - 0.00 in Rain Light Rain
8:53 PM 39.0 °F 31.4 °F 35.1 °F 86% 29.66 in 10.0 mi SSW 12.7 mph - 0.00 in Rain Light Rain
9:53 PM 37.9 °F 31.5 °F 34.0 °F 86% 29.68 in 10.0 mi SSW 9.2 mph - 0.01 in Rain Light Rain
10:22 PM 37.4 °F 29.8 °F 33.8 °F 87% 29.65 in 10.0 mi SE 11.5 mph - 0.01 in Rain Light Rain
10:53 PM 37.0 °F 29.3 °F 34.0 °F 89% 29.65 in 10.0 mi SE 11.5 mph - 0.01 in   Overcast
11:53 PM 36.0 °F 29.6 °F 34.0 °F 93% 29.64 in 10.0 mi ESE 8.1 mph - N/A   Overcast